{"data":{"norad_id":43339,"intl_designator":"2018-036A","name":"USA 283","alt_names":[],"object_type":"PAYLOAD","status":"ACTIVE","operator":null,"country":"US","launch_date":"2018-04-14","launch_site_code":"AFETR","launch_vehicle":null,"mission":null,"orbit_class":"UNKNOWN","rcs_meters":null,"size_class":null,"mass_kg":null,"dimensions":null,"purposes":["comms"],"wikipedia_slug":null,"has_3d_model":false,"image_url":null,"decayed_at":null,"tle_current":{"epoch":"2026-05-23T07:53:36.209184Z","epoch_age_seconds":230182,"freshness":"STALE","line1":"1 43339U 18036A   26143.32889131 -.00000325  00000+0  00000+0 0  9990","line2":"2 43339   0.0094 309.1271 0000117  90.3436  93.9667  1.00271058 25049","mean_motion":1.00271058,"eccentricity":1.17e-5,"inclination_deg":0.0094,"raan_deg":309.1271,"arg_perigee_deg":90.3436,"mean_anomaly_deg":93.9667,"bstar":0,"rev_number":2504,"period_min":1436.1073162308,"perigee_km":35786.305437164,"apogee_km":35787.292096661,"semimajor_km":42164.935766913,"source":"CELESTRAK","updated_at":"2026-05-25T13:38:14.053321Z"}}}